Regional Weather Roundup
Issued by NWS

Home | Current Version | Previous Version | Graphics & Text | Print | Product List | Glossary On
Versions: 1 2 3 4 5 6 7 8 9 10 11 12 13 14 15 16 17 18 19 20 21 22 23 24 25 26 27 28 29 30 31 32 33 34 35 36 37 38 39 40 41 42 43 44 45 46 47 48 49 50
000
ASUS45 KBOU 311807
RWRCO

WEATHER ROUNDUP FOR COLORADO
NATIONAL WEATHER SERVICE DENVER/BOULDER CO
1200 PM MDT SUN AUG 31 2014

NOTE: "FAIR" INDICATES FEW OR NO CLOUDS BELOW 12000 FEET WITH NO
SIGNIFICANT WEATHER AND/OR OBSTRUCTIONS TO VISIBILITY.

COZ001>005-013-030-031-311900-
...NORTHWEST COLORADO...

CITY           SKY/WX    TMP DP  RH WIND       PRES   REMARKS
CRAIG          PTSUNNY   62  46  55 NE9       30.08F
HAYDEN         PTSUNNY   57  43  58 NE3       30.09F
MEEKER         MOSUNNY   67  46  47 NE10G21   30.07S
MOUNT WERNER   NOT AVBL
STEAMBOAT SPGS CLOUDY    54  45  70 NW6       30.10F
WALDEN         CLOUDY    41  37  87 N18G37    30.13R
$$

COZ006>008-011-311900-
...WEST CENTRAL VALLEYS...

CITY           SKY/WX    TMP DP  RH WIND       PRES   REMARKS
GRAND JUNCTION MOSUNNY   80  42  25 NW7       29.92F
MONTROSE       MOSUNNY   79  35  20 W14       30.02F
EAGLE          NOT AVBL
RIFLE          PTSUNNY   73  45  36 CALM      29.97F
DELTA          MOSUNNY   83  35  18 E3        29.96F HAZE
NUCLA          MOSUNNY   81  34  18 SW17G24   30.06F
$$

COZ017>023-064>068-311900-
...SOUTHWEST COLORADO...

CITY           SKY/WX    TMP DP  RH WIND       PRES   REMARKS
DURANGO        SUNNY     78  37  22 W12G20    30.14F
CORTEZ         SUNNY     82  35  18 SW17G26   30.09F
PAGOSA SPRINGS SUNNY     73  32  21 SW16      30.21F
TELLURIDE      MOSUNNY   66  32  28 SW10G21   30.27F
WOLF CREEK PAS NOT AVBL
$$

COZ009-010-012-014-032>034-037-058>063-311900-
...CENTRAL COLORADO...

CITY           SKY/WX    TMP DP  RH WIND       PRES   REMARKS
ASPEN          CLOUDY    66  32  28 W12G20    30.13R
BUENA VISTA    MOSUNNY   74  27  17 SW18G31   30.11S
COPPER MTN     RAIN      45  36  70 SW15G29   30.40S
BERTHOUD PASS  CLOUDY    34  32  93 W22       30.41S WCI  22
COTTONWOOD PAS MOSUNNY   64  25  22 NW17G32   30.24F
GUNNISON       MOSUNNY   72  37  28 SW22G28   30.14F
KREMMLING      PTSUNNY   70  45  40 S10       30.09F
LEADVILLE      CLOUDY    54  32  43 NW16G24   30.26R
MONARCH PASS   PTSUNNY   50  30  46 W31G51    30.50S
SALIDA         MOSUNNY   77  31  18 W28G38    30.16S
SUNLIGHT       CLOUDY    59  41  51 CALM      30.31F
WILKERSON PASS NOT AVBL
$$

COZ069>075-311900-
...SAN LUIS VALLEY/SANGRE DE CRISTO MOUNTAINS...

CITY           SKY/WX    TMP DP  RH WIND       PRES   REMARKS
ALAMOSA        SUNNY     79  32  18 W26G33    30.14F
LA VETA PASS   NOT AVBL
SAGUACHE       NOT AVBL
$$

COZ035-036-038>040-311900-
...NORTHERN COLORADO FRONT RANGE...

CITY           SKY/WX    TMP DP  RH WIND       PRES   REMARKS
DENVER INTL AP PTSUNNY   71  50  47 E10       29.96F
DMNS CITY PARK   N/A     74  48  39 E7        29.96F
AURORA         MOSUNNY   72  48  43 NE9       29.99F
FRONT RANGE AP MOSUNNY   72  50  46 E7        29.98F
ERIE MUNI ARPT MOSUNNY   72  51  46 SE9       29.94F
BOULDER MUN AP MOSUNNY   72  48  43 S8        29.93F
CENTENNIAL     MOSUNNY   71  46  40 NE9       30.00F
BROOMFIELD     PTSUNNY   68  50  52 S8        29.99S
FORT COLLINS   CLOUDY    70  54  56 S9        29.93F
LONGMONT       CLOUDY    74  55  50 E6        29.94F
$$

COZ041-046-047-076>085-087-088-311900-
...PIKES PEAK/PALMER DIVIDE AND SOUTHERN FOOTHILLS...

CITY           SKY/WX    TMP DP  RH WIND       PRES   REMARKS
COLO. SPRINGS  PTSUNNY   81  40  23 E5        29.98S
A. F. ACADEMY  MOSUNNY   73  47  39 N10G20    30.00S
ELLICOTT       SUNNY     82  39  21 SW14      29.96F
FALCON         SUNNY     73  49  42 NE13G20   30.05S
FORT CARSON    MOSUNNY   84  33  16 W18G39    29.93F
LIMON          MOSUNNY   73  50  44 N23G31    29.97R
MONUMENT HILL  MOSUNNY   64  48  55 NE9       30.07S
TRINIDAD       MOSUNNY   90  34  13 SW15G25   29.96F
$$

COZ042>045-048>051-090-091-311900-
...NORTHEAST COLORADO...

CITY           SKY/WX    TMP DP  RH WIND       PRES   REMARKS
GREELEY ARPT   PTSUNNY   68  52  56 W10       29.93S
AKRON          PTSUNNY   70  51  51 N13       29.93F
BURLINGTON     CLOUDY    75  53  46 N16G25    29.88R
WRAY             N/A     70  53  55 N13       29.90R
STERLING       PTSUNNY   81  50  34 NW23G29   29.87F
HOLYOKE        LGT RAIN  64  55  72 N10       29.87F
FORT MORGAN    PTSUNNY   75  44  33 NW10G17   29.91F
$$

COZ086-089-092>099-311900-
...SOUTHEAST COLORADO...

CITY           SKY/WX    TMP DP  RH WIND       PRES   REMARKS
PUEBLO         SUNNY     88  38  17 VRB3      29.86F
LA JUNTA       MOSUNNY   91  46  21 SW6       29.83F
LAMAR          MOSUNNY   92  50  23 W7        29.78F
SPRINGFIELD      N/A     93  39  15 W12G20    29.86S
$$


USA.gov is the U.S. government's official web portal to all federal, state and local government web resources and services.